GFSSW_850_rhum_174.txt.gz
RH
72 86 84 94 92 68 62 67 62 56 62 57 53 48 40 36 35 31 24 30 28 29 28 24 26 25 26 19 18 23 34 23 22 20 27 24 24 26 27 26 24 24 25 34 46
87 80 93 97 78 70 66 67 60 69 65 55 48 40 38 35 32 27 36 32 30 29 37 36 30 27 27 28 23 31 33 37 27 27 30 24 28 29 28 25 24 23 25 25 25
95 92 93 96 83 69 64 65 73 70 62 54 41 36 34 32 28 38 38 34 30 28 29 33 26 25 27 26 27 26 36 25 32 39 32 29 29 28 30 33 25 26 24 26 28
88 94 93 80 68 64 71 76 72 66 57 49 38 33 27 31 33 36 36 34 30 29 27 25 25 22 23 27 25 30 28 28 33 34 31 30 31 30 28 29 26 26 26 26 32
99 99 87 65 62 66 76 74 70 65 59 49 40 29 32 32 42 34 33 30 27 26 29 29 25 26 24 24 23 28 27 27 29 29 27 27 27 30 27 25 26 26 27 27 26
81 68 62 63 69 72 71 69 68 64 56 39 30 32 32 35 37 34 30 29 25 30 26 30 28 25 24 26 30 26 27 26 25 25 24 26 24 21 20 19 22 21 24 25 26
62 62 62 63 63 63 61 56 53 50 38 32 32 31 24 41 40 30 30 26 23 22 21 22 24 28 24 28 25 22 23 26 22 21 23 25 25 26 13 17 18 21 21 20 21
52 50 48 46 43 45 46 42 38 34 30 28 30 29 38 33 32 24 28 26 23 20 18 17 17 19 26 24 21 21 20 24 24 22 27 23 22 17 16 16 18 18 19 18 18
53 47 42 37 36 39 38 35 30 26 25 26 32 29 34 34 27 22 21 21 22 18 17 16 16 27 28 41 36 21 31 21 27 24 23 23 31 18 14 16 16 17 17 17 17
48 44 36 32 31 30 29 26 26 21 27 32 29 30 33 38 28 24 20 18 19 24 26 23 24 49 42 86 81 38 27 24 23 24 28 35 34 24 19 21 19 18 18 19 19
41 36 33 26 25 26 25 34 33 27 35 42 40 39 41 36 33 20 16 22 24 22 37 24 61 63 41 37 32 29 30 36 26 29 39 36 36 30 25 24 20 20 21 22 24
32 28 28 24 22 21 20 34 33 30 34 35 33 35 34 36 34 22 22 24 19 30 24 57 57 39 36 35 38 37 37 39 38 32 44 42 42 32 22 19 19 20 25 28 33
28 23 21 22 19 20 20 22 26 31 26 30 32 30 31 35 38 37 29 30 28 36 48 59 43 35 36 38 45 48 46 52 55 54 45 40 36 24 19 19 21 23 27 36 44
20 20 18 18 18 18 16 16 13 27 77 31 29 28 34 33 36 32 32 36 31 38 39 43 37 38 38 42 47 70 50 52 61 82 83 48 72 38 20 25 26 26 29 41 46
16 15 14 12 12 14 14 15 18 30 68 29 30 26 31 35 36 32 35 35 38 36 38 50 40 42 44 50 47 56 54 58 64 90 90 50 87 60 26 32 33 30 29 39 45
15 15 16 13 14 14 14 17 29 81 58 43 29 30 31 28 31 30 32 32 38 34 40 45 44 44 52 46 50 51 70 72 66 83 96 55 65 67 33 37 40 35 30 34 39
20 18 15 12 18 20 19 29 76 77 24 43 46 32 37 33 29 31 35 42 56 77 88 42 49 46 47 55 55 81 92 88 84 94 90 76 79 60 34 34 36 36 33 34 34
17 24 22 15 14 19 28 57 62 24 36 32 36 37 42 40 38 42 37 60 38 45 71 70 79 79 51 59 68 72 96 92 54 90 84 71 82 76 29 31 35 35 35 32 34
15 23 24 22 19 18 40 90 55 43 26 38 36 77 38 39 49 70 39 56 44 39 57 66 66 50 53 54 66 79 98 68 89 85 90 81 66 48 31 38 42 38 39 36 34
17 22 25 19 16 32 61 50 45 37 34 34 42 33 73 47 77 45 56 38 44 42 39 49 69 38 62 61 62 76 63 92 90 84 82 75 53 74 64 56 59 52 39 36 36
28 41 26 18 36 38 86 50 42 43 52 47 32 27 26 39 40 44 56 46 40 43 40 38 56 55 46 66 79 78 89 84 83 86 92 90 78 96 76 77 62 47 40 40 40
41 65 26 33 58 39 61 39 37 46 50 40 38 33 30 31 42 61 52 50 38 39 39 46 52 73 46 48 47 55 74 64 90 80 89 92 77 50 68 59 41 44 43 42 40
41 42 40 38 86 56 44 45 40 40 38 38 36 36 34 34 39 34 41 44 41 41 46 43 64 74 56 51 46 58 59 57 52 67 86 88 78 47 38 50 42 45 36 38 38
56 94 54 34 32 33 36 39 50 49 45 42 39 40 38 39 36 40 36 52 48 45 47 49 50 52 69 44 45 60 55 58 61 92 85 78 70 56 58 67 50 36 31 36 39
51 55 51 85 45 35 38 32 40 50 47 46 46 42 36 39 37 43 37 56 58 54 54 53 70 53 53 48 48 52 54 57 67 65 76 73 79 64 58 60 42 34 37 39 40
55 55 45 45 44 37 42 39 38 37 42 43 46 33 38 40 34 41 36 41 47 60 62 56 76 59 65 54 54 60 52 51 48 53 59 54 57 40 39 37 38 41 40 41 40
45 47 52 48 47 48 46 41 40 37 38 36 38 37 42 42 41 40 41 38 39 62 72 69 76 68 84 57 60 70 50 47 45 44 43 55 42 34 37 38 43 40 42 44 44

GFSSW_850_rhum_177.txt.gz
RH
76 77 73 89 97 75 68 72 50 55 59 58 53 47 42 38 28 23 20 30 23 26 32 20 18 21 17 14 19 26 32 36 38 31 30 25 28 28 27 25 24 24 23 27 42
85 86 93 96 80 67 75 61 60 62 59 53 46 44 37 31 26 22 36 32 27 30 33 27 26 26 23 22 21 31 47 36 35 34 35 30 28 30 29 29 26 24 24 24 25
89 90 94 91 78 71 68 66 68 63 56 47 43 40 38 37 30 35 38 33 27 24 33 26 25 24 25 22 25 30 40 30 36 35 31 31 31 31 31 32 26 27 26 27 27
99 99 90 86 75 65 68 73 69 61 53 39 37 31 32 33 29 36 36 30 30 28 22 23 24 23 29 29 25 33 29 32 33 30 30 32 30 29 30 26 24 26 28 27 29
87 95 78 66 65 72 74 71 65 57 45 38 33 32 28 28 39 34 32 28 26 24 24 27 26 26 28 26 27 31 29 28 28 28 26 26 27 29 24 17 19 23 26 27 27
64 56 57 67 75 76 72 69 64 58 48 37 29 35 33 40 34 35 28 27 23 21 25 25 26 25 25 28 31 27 28 26 26 23 24 26 25 24 10 13 18 18 18 17 16
59 60 61 64 64 64 62 61 57 46 34 33 31 29 26 39 33 33 25 22 21 20 20 24 24 23 25 27 24 22 23 26 24 23 25 23 17 29 15 16 18 16 16 15 15
48 45 43 46 49 48 45 40 36 31 32 32 28 24 36 33 26 26 25 22 19 17 16 16 14 16 20 22 21 22 24 26 25 23 26 21 25 18 17 18 18 18 19 18 18
44 40 38 39 39 37 32 27 26 26 30 31 30 25 34 27 22 20 19 18 16 16 16 15 17 26 32 53 52 36 28 23 25 24 26 23 30 23 20 24 23 22 21 22 22
40 35 33 32 32 29 27 26 25 25 30 31 31 26 29 34 22 19 18 16 20 24 18 22 34 52 52 73 56 38 31 30 26 36 38 39 39 32 28 30 26 22 23 24 26
39 30 27 27 26 26 31 35 27 22 30 36 37 34 36 34 26 17 17 19 23 18 34 31 62 66 46 42 37 34 35 42 35 42 46 43 47 40 33 26 21 23 28 29 34
29 28 25 23 23 20 27 28 24 26 32 31 28 30 33 30 24 17 23 23 28 38 38 58 60 41 41 37 39 41 42 49 46 48 54 54 50 37 28 21 25 28 32 37 41
21 20 22 21 18 21 22 23 26 28 25 30 30 28 29 28 31 29 24 27 33 48 57 64 45 37 38 49 54 58 51 57 63 68 51 51 32 35 22 26 27 30 34 37 44
18 15 15 19 18 18 17 18 20 32 67 35 30 27 30 34 34 30 34 35 34 41 46 46 38 41 41 52 57 61 56 59 69 74 53 54 50 40 29 32 36 32 36 38 38
14 14 12 11 12 13 14 16 18 34 45 30 31 28 29 30 34 30 32 34 39 39 46 54 44 48 55 56 52 63 57 63 73 92 89 57 80 45 34 37 44 40 34 39 41
14 14 12 11 11 12 13 16 33 61 34 37 30 34 33 30 29 30 32 32 38 38 47 48 43 51 55 49 52 56 81 73 75 89 92 63 64 55 40 41 44 39 33 34 34
16 15 11 10 12 14 15 29 64 58 27 37 47 37 37 39 33 36 39 45 53 44 84 53 54 49 49 59 65 74 77 60 54 85 71 86 77 52 38 36 38 37 37 33 30
22 23 19 12 12 16 24 48 43 27 35 32 37 42 44 46 45 48 41 70 46 55 84 69 35 70 55 63 73 85 78 65 12 78 82 78 66 50 38 43 43 38 40 32 35
18 23 20 18 16 23 30 77 55 44 34 36 38 67 43 43 53 65 47 66 50 48 59 60 57 53 56 60 66 70 97 74 77 92 90 81 66 57 35 39 45 39 38 35 34
17 27 20 15 23 37 53 61 50 40 38 37 42 34 59 51 67 48 60 43 49 44 45 52 40 48 67 65 64 75 71 73 91 35 69 72 70 70 56 41 51 52 42 40 38
29 40 21 29 36 23 79 54 48 44 49 44 35 30 30 42 41 51 58 48 42 45 42 42 54 46 52 76 83 84 92 84 78 88 74 92 66 72 55 63 53 47 39 37 38
45 56 29 32 40 53 65 43 39 49 46 42 40 35 32 37 45 64 53 54 38 40 44 48 65 74 57 50 55 70 77 72 71 61 92 91 76 52 58 52 49 45 35 30 36
40 48 41 37 76 68 46 46 42 46 40 41 39 37 35 36 38 39 45 44 39 43 47 48 64 71 54 56 51 57 62 68 65 79 90 84 67 54 55 58 48 44 34 33 37
53 76 49 30 35 48 47 50 50 46 44 42 41 41 40 43 37 42 46 52 44 47 48 48 58 53 60 46 62 65 60 67 68 92 85 81 66 54 49 66 48 35 38 40 41
51 50 51 76 47 39 41 40 52 58 50 46 48 46 41 41 42 47 42 62 58 56 52 58 74 62 62 60 59 58 57 65 75 67 70 65 77 51 59 69 42 39 40 42 43
50 53 48 47 43 41 46 42 43 40 49 48 51 45 44 42 38 43 45 49 57 64 65 63 70 67 73 58 63 71 63 60 57 56 61 51 54 36 36 36 40 40 45 48 50
45 47 54 51 52 59 59 45 42 38 40 39 41 40 42 44 42 43 42 42 47 69 79 77 80 79 87 69 72 78 62 57 55 55 53 66 50 42 37 38 38 46 49 51 52

GFSSW_850_rhum_183.txt.gz
RH
59 59 60 70 74 91 80 65 57 50 57 68 64 55 50 44 33 24 26 35 36 35 22 20 17 14 12 16 24 27 33 32 34 34 32 30 29 29 29 28 26 26 26 27 30
59 58 66 69 89 83 66 64 47 58 66 71 57 47 38 34 29 27 31 32 33 30 24 22 17 14 16 18 21 31 39 35 35 34 33 33 31 31 30 30 26 27 28 29 32
70 72 88 93 82 70 62 49 61 66 65 57 48 37 33 26 24 31 28 26 27 29 26 22 18 18 20 20 28 33 36 38 37 34 32 32 31 28 33 27 29 30 30 28 29
90 90 83 86 71 61 52 63 64 60 54 49 41 36 33 31 23 31 27 28 24 28 24 23 21 22 27 29 30 35 34 35 35 29 27 28 26 25 28 28 25 21 20 20 20
89 84 78 73 64 53 64 63 59 52 45 39 34 32 28 27 32 29 28 26 26 26 24 22 20 22 28 31 29 32 31 29 28 28 25 24 23 26 18 20 20 18 16 17 18
63 62 60 56 55 63 64 59 54 43 41 34 32 29 23 33 29 26 25 23 21 23 24 22 22 21 25 28 30 31 29 28 25 24 25 25 23 22 18 19 18 18 18 18 21
61 58 61 62 65 65 60 54 45 40 35 34 31 24 22 31 28 24 21 20 22 23 23 23 21 20 21 23 23 23 21 27 28 26 26 24 20 26 20 18 18 22 24 23 24
48 55 57 58 59 59 54 48 39 34 34 30 26 22 26 24 25 23 19 18 17 18 17 18 18 19 21 22 27 24 28 24 30 36 25 21 20 18 20 24 27 26 24 27 26
45 46 47 44 38 35 33 32 31 32 30 25 23 22 24 21 20 19 18 17 16 17 18 17 17 24 25 38 41 39 27 24 24 45 41 30 29 25 21 29 29 27 29 28 24
38 39 37 30 29 29 27 28 31 30 29 27 26 20 22 23 20 21 19 18 16 17 18 20 20 42 54 66 47 34 24 25 26 42 44 40 41 34 26 30 28 31 30 26 28
30 32 30 27 30 30 28 25 22 19 26 34 35 33 29 23 20 20 18 19 17 20 42 35 52 56 45 44 34 34 34 36 35 56 46 35 45 41 32 29 31 32 31 30 34
25 26 28 27 26 26 28 25 23 24 27 25 26 27 26 21 18 21 21 19 28 49 44 45 47 42 43 45 47 47 42 37 44 51 52 55 52 46 30 33 34 36 38 37 34
21 23 24 23 20 22 23 20 22 24 22 23 25 27 29 26 30 32 25 28 34 42 54 45 41 41 43 53 45 58 48 55 58 68 50 68 35 34 32 34 37 36 38 40 40
16 19 21 23 22 21 21 23 24 28 61 27 26 28 27 30 29 32 34 32 36 39 45 47 40 44 50 55 55 32 61 62 67 69 41 60 41 37 39 36 39 39 34 36 34
13 12 16 16 15 13 14 15 16 30 47 26 28 29 27 30 33 30 33 30 44 49 38 45 48 54 55 59 53 55 68 71 77 94 90 60 78 47 36 40 36 39 36 30 26
13 10 10 11 10 10 12 15 34 61 32 36 36 40 28 31 31 30 25 34 41 52 53 53 49 53 58 58 63 65 64 67 86 88 76 68 73 60 43 38 41 40 37 34 28
17 14 9 9 9 11 12 28 64 50 24 32 41 44 40 47 30 46 45 52 47 32 62 57 60 56 56 59 63 51 60 52 52 67 61 89 84 56 34 41 43 41 38 35 27
16 16 12 9 10 14 20 37 30 29 30 31 41 40 37 47 47 47 54 70 45 56 78 57 33 62 60 64 61 89 62 64 13 42 60 76 75 52 44 38 47 42 39 28 29
18 13 13 15 18 28 25 66 36 35 33 37 32 57 35 41 47 52 54 74 54 50 32 50 34 57 64 67 56 69 65 63 79 87 84 76 53 51 48 46 44 34 31 30 34
22 21 22 25 31 29 47 50 50 46 40 38 25 26 47 48 47 40 54 42 47 46 52 44 34 50 72 67 68 68 69 63 80 24 30 56 50 63 60 57 43 39 36 30 30
31 29 27 32 22 16 64 53 51 44 49 42 33 32 34 35 36 46 43 40 46 47 45 50 43 36 56 74 73 89 92 87 73 78 58 63 57 64 67 66 54 41 38 37 37
39 41 33 36 31 58 58 45 39 45 48 41 38 33 35 41 44 64 45 44 42 41 46 50 59 64 44 53 58 64 57 67 70 48 93 87 74 43 64 58 46 45 45 37 36
44 44 32 32 60 56 49 48 46 50 46 44 41 38 36 36 33 43 46 47 42 44 47 47 59 72 56 54 52 68 76 65 65 79 93 75 68 39 62 48 45 48 40 36 37
53 71 37 31 38 46 46 41 42 48 43 43 42 40 39 41 40 39 45 51 44 47 53 45 55 55 70 54 62 60 61 80 68 93 80 80 62 46 44 66 52 41 38 34 38
40 50 58 76 45 46 45 51 48 44 51 44 45 44 44 48 45 48 49 65 57 56 56 53 63 66 64 62 58 55 57 69 85 69 67 63 72 50 55 63 40 36 34 37 40
42 46 49 49 45 44 49 52 56 52 54 50 52 47 51 46 48 54 54 59 58 68 64 70 71 76 83 68 69 78 72 67 61 62 68 56 58 41 40 40 43 40 39 39 50
41 46 50 61 60 61 60 49 52 43 46 44 47 49 52 49 37 39 38 40 46 71 74 80 79 82 89 76 76 69 69 71 71 68 60 74 53 46 50 45 40 36 35 46 50

GFSSW_850_rhum_186.txt.gz
RH
63 68 73 74 86 92 80 68 63 46 56 62 60 56 54 41 28 26 34 36 31 31 20 21 16 17 16 18 24 23 30 33 33 33 30 31 30 30 31 30 28 28 29 30 31
61 64 71 72 82 84 67 61 49 58 67 70 58 51 45 38 28 28 29 34 25 28 24 20 20 18 14 20 21 30 34 31 35 35 33 33 32 31 28 29 27 30 30 29 33
59 71 63 85 85 72 60 44 60 64 67 57 46 39 35 28 25 28 30 26 24 29 24 23 19 18 18 22 30 35 37 38 38 35 31 31 30 27 32 30 33 32 25 20 24
83 92 93 90 69 60 50 60 67 64 55 48 39 34 30 26 22 26 28 24 23 28 24 24 23 18 29 32 31 38 38 36 35 29 27 28 26 23 27 31 22 20 19 17 18
86 81 76 69 59 62 64 63 59 53 47 39 35 32 28 26 27 28 21 19 19 24 24 23 19 20 30 32 30 33 33 30 29 25 23 22 23 24 20 23 20 19 18 18 18
67 65 56 54 66 68 63 57 51 44 38 32 32 27 25 30 27 23 22 24 23 26 23 22 19 20 26 29 32 33 30 29 25 24 25 26 24 22 20 20 18 18 22 24 24
55 56 57 64 67 63 58 51 41 37 32 32 26 25 24 28 25 22 22 24 24 23 22 21 21 19 20 25 24 25 25 27 30 33 26 28 18 22 21 20 25 26 27 27 25
61 61 62 62 60 56 52 43 36 32 31 29 24 23 25 24 22 21 20 19 20 20 19 18 17 16 20 23 27 24 28 22 31 40 28 22 17 20 22 22 27 27 30 26 25
48 51 52 49 44 40 36 33 32 30 26 24 24 22 24 21 20 20 19 18 20 17 17 17 14 23 26 34 38 36 24 24 24 47 44 30 22 22 23 27 29 30 30 28 31
39 39 35 32 30 30 30 30 29 26 26 22 23 20 22 22 22 23 18 17 16 16 16 15 17 39 53 66 50 29 21 22 24 43 49 41 38 33 21 31 29 33 30 30 35
31 33 28 30 32 30 28 23 20 19 24 33 33 32 26 23 23 19 17 16 17 18 41 32 51 57 48 47 36 34 31 32 31 58 48 38 47 36 31 31 34 34 33 32 34
26 27 26 27 27 27 27 21 23 23 25 24 26 28 27 22 18 19 16 18 28 42 37 44 52 43 45 50 47 43 38 32 41 53 52 53 52 46 35 33 34 36 36 33 31
22 24 24 24 20 22 22 20 21 22 20 19 25 28 29 26 32 31 27 28 31 41 53 44 42 42 43 54 41 61 49 56 60 66 52 66 30 35 33 36 38 36 36 37 36
16 20 22 22 19 19 19 21 24 29 60 26 25 28 25 28 29 32 32 29 38 38 47 53 43 45 51 60 53 28 65 64 69 63 42 55 38 28 36 39 40 38 34 34 29
13 12 17 16 15 13 14 14 16 27 47 26 29 27 25 28 32 26 34 28 47 50 37 48 50 55 63 64 53 63 71 72 79 93 88 58 77 40 38 43 42 38 36 29 28
13 10 11 13 11 10 11 13 32 62 35 32 34 43 27 30 32 30 26 35 42 47 56 56 51 56 60 70 66 63 58 64 80 87 66 72 76 57 43 44 37 41 36 34 30
15 13 9 11 11 12 12 25 65 49 23 31 40 45 38 46 32 49 45 53 48 28 55 50 60 60 58 57 62 46 58 55 51 65 56 88 87 53 38 36 42 42 36 36 29
15 12 10 9 10 14 20 36 28 25 25 33 42 38 36 50 44 46 51 64 47 54 74 51 31 61 65 67 60 84 62 63 14 42 54 78 74 54 45 41 47 41 41 33 27
17 14 13 14 17 25 22 57 32 32 31 37 29 53 30 39 43 48 52 69 51 50 26 44 30 60 69 70 56 71 62 56 76 88 82 72 48 41 50 44 52 43 33 30 29
27 24 26 30 29 23 42 45 44 44 38 36 22 24 39 44 43 32 47 41 45 47 49 40 34 52 76 67 72 67 62 61 80 21 32 55 41 56 52 55 53 40 35 32 33
33 27 31 28 22 15 58 51 48 45 46 36 30 34 34 31 34 41 38 38 46 47 47 45 42 37 60 78 76 92 94 84 71 75 59 58 56 61 62 69 60 42 37 40 38
38 41 31 35 29 59 52 43 41 48 48 41 36 31 32 38 40 59 42 43 43 42 46 48 52 58 41 54 54 65 58 59 70 52 91 85 70 43 55 59 55 40 38 40 40
43 41 34 30 59 52 50 48 47 46 47 46 42 36 36 38 32 42 46 47 45 45 51 49 58 73 58 57 54 72 74 61 64 77 90 71 69 40 58 45 45 42 36 34 38
45 64 36 31 35 42 40 37 39 47 44 44 42 40 39 40 40 40 46 52 45 46 53 43 55 55 70 53 59 64 67 76 64 91 77 80 58 45 49 57 46 40 37 36 37
38 49 53 70 45 47 46 43 42 39 51 45 44 44 40 48 47 48 48 64 57 58 57 52 62 63 61 58 56 54 54 78 82 68 64 69 70 50 55 65 45 40 38 40 39
39 46 50 52 47 44 50 54 50 50 54 51 50 45 49 47 48 52 56 62 62 69 62 72 70 76 83 69 76 82 73 63 68 70 63 54 58 42 42 41 43 38 38 37 35
42 46 53 64 63 56 57 47 50 48 48 44 48 51 52 49 38 39 39 43 48 72 74 80 79 82 88 79 77 72 69 72 73 68 63 76 56 48 50 48 43 40 38 37 36

GFSSW_850_rhum_189.txt.gz
RH
65 68 65 79 99 97 82 73 59 44 50 59 69 56 50 31 15 24 21 22 23 24 22 27 23 17 19 21 26 19 34 36 35 34 31 32 30 31 31 30 29 29 31 34 33
61 64 71 82 90 82 68 59 41 54 69 68 58 56 52 39 23 20 22 25 26 24 20 28 20 18 16 20 22 26 34 32 36 35 35 34 31 30 28 29 30 31 30 25 26
61 74 80 82 78 67 53 49 57 69 68 53 45 44 41 35 26 23 24 20 19 25 23 26 19 16 17 24 31 36 36 41 39 35 32 31 30 27 30 33 34 29 22 19 20
78 85 87 69 60 58 64 63 66 66 54 46 36 36 32 39 30 23 20 26 27 24 23 24 21 17 29 31 30 41 38 36 35 28 25 28 24 23 28 32 22 21 19 18 18
79 76 70 59 51 63 66 63 59 52 45 36 34 30 26 26 25 26 22 23 25 24 22 21 20 19 30 31 30 36 33 30 27 24 24 22 22 23 22 24 22 19 19 20 22
67 61 55 50 54 62 58 54 48 43 35 32 31 26 21 26 25 23 24 24 23 24 22 20 19 20 26 31 33 33 30 28 25 28 28 25 24 22 22 21 20 22 24 26 26
65 64 64 60 60 57 53 44 39 33 31 27 24 21 21 25 24 23 24 23 22 21 18 19 20 18 20 27 28 23 27 27 35 34 26 31 22 28 23 19 26 26 30 27 24
61 63 64 62 57 51 42 38 32 32 30 24 21 21 24 23 22 21 21 22 22 21 18 18 17 17 21 24 24 26 26 21 34 39 29 22 17 22 24 20 27 28 29 25 29
48 54 56 53 48 43 37 33 32 29 25 23 21 20 23 21 21 19 19 18 16 15 14 16 16 23 26 33 37 32 23 22 23 49 45 27 19 18 23 21 29 31 29 30 36
39 37 35 34 32 33 32 30 27 26 24 22 20 18 21 23 23 20 19 18 19 19 20 16 16 40 52 66 48 25 20 22 22 41 48 39 32 27 22 24 30 33 30 32 37
31 30 31 31 31 31 28 22 21 19 22 32 31 28 24 25 22 20 17 17 19 19 34 28 50 56 49 47 36 31 27 27 28 56 46 38 43 29 28 31 33 35 33 33 36
26 27 28 28 27 27 27 21 22 21 25 25 26 27 26 22 21 20 18 18 23 35 34 47 53 45 46 51 45 40 32 29 39 52 46 48 40 32 39 37 34 36 37 35 34
23 24 23 22 21 22 19 20 20 20 19 20 26 26 27 25 30 29 24 23 31 44 54 45 44 44 42 55 42 67 46 57 55 62 51 58 31 32 36 38 38 37 37 35 32
16 20 20 20 19 19 18 20 26 28 59 26 25 26 24 26 28 30 31 28 40 40 50 56 46 46 52 61 52 27 68 64 66 54 35 52 36 22 35 42 42 40 35 34 27
11 12 16 16 13 13 15 15 18 28 49 24 29 26 24 26 31 25 34 27 46 48 37 52 52 53 62 66 55 55 71 72 78 79 76 50 66 28 40 41 43 40 36 30 28
13 9 12 12 10 11 12 13 30 62 32 28 31 41 25 30 33 28 26 33 40 44 56 58 53 58 62 71 66 71 54 63 74 77 59 70 67 47 36 38 41 38 36 33 33
12 10 8 9 10 10 11 26 66 52 22 31 37 40 38 45 32 50 42 54 46 28 51 46 59 62 61 56 60 44 58 60 56 66 48 83 81 45 34 35 42 41 37 34 35
14 10 9 8 9 11 14 38 32 21 22 34 42 35 38 48 42 42 45 56 45 49 60 47 35 64 67 68 57 74 59 64 22 44 48 76 67 48 46 44 44 43 40 38 28
18 13 12 13 16 20 16 58 30 26 31 32 25 48 28 36 40 44 48 61 51 48 24 37 30 63 76 72 56 72 66 53 76 89 70 60 44 36 45 38 52 48 38 31 32
27 18 21 21 18 14 39 40 42 44 38 34 21 24 35 40 39 27 41 40 46 48 46 40 34 55 80 69 74 62 60 58 75 28 39 51 38 57 43 44 50 50 36 34 33
35 26 32 25 14 11 59 47 44 46 51 36 28 32 32 27 30 36 34 37 46 51 44 42 40 36 62 74 72 86 90 79 68 66 58 52 58 61 55 61 54 52 34 34 39
36 41 30 37 26 56 51 42 41 48 46 41 35 30 28 36 35 54 36 40 43 43 43 45 45 50 36 56 55 65 60 54 68 56 82 71 70 42 52 52 55 47 39 34 37
42 38 32 27 58 49 52 49 47 45 45 44 40 38 36 35 33 40 43 48 46 45 48 51 55 70 58 58 57 76 72 57 61 71 88 70 71 43 46 47 42 37 34 33 34
40 60 35 29 30 38 37 35 38 48 44 44 41 40 39 40 41 38 44 52 47 45 54 42 54 54 62 48 60 68 76 67 59 82 73 76 60 48 47 58 43 41 39 38 37
32 51 53 69 46 45 44 38 38 40 50 46 48 44 38 44 46 48 48 63 56 60 56 52 59 60 58 57 55 52 53 81 74 63 65 67 68 47 56 63 42 40 38 39 37
35 45 51 52 48 44 51 54 45 42 52 51 46 44 49 48 48 53 56 63 60 70 61 72 65 77 83 71 78 82 72 61 69 62 56 51 55 38 38 41 42 39 40 39 39
41 46 52 63 63 56 54 46 50 49 47 45 47 52 52 47 38 38 39 43 49 69 72 75 76 84 85 77 78 72 74 72 68 67 59 72 53 47 48 47 43 39 40 40 37